Location: Wien
(48.2082°N, 16.3738°E)
Time: 20:31:23
(UTC+02:00)

EO-79 - Pass Details

Date: 29 March 2019
Orbit: 592 x 610 km, 97.9° (Epoch: 22 October)

Event Time Altitude Azimuth Distance (km) Brightness Sun altitude
Rises 00:58:15 0° 8° (N) 2,880 ? -37.0°
Reaches altitude 10° 01:00:29 10° 3° (N) 1,973 ? -36.9°
Enters shadow 01:01:10 14° 0° (N) 1,709 ? -36.9°
